CENTISPACE-2 S7

导读

CENTISPACE-2 S7(NORAD编号68356)是中国微厘空间二号(CentiSpace-2)低轨导航增强星座的组网卫星,由北京未来导航科技有限公司运营,于2026年3月22日随捷龙三号火箭在黄海海上平台发射,进入约645公里、倾角55度的近圆轨道。该卫星属于北斗体系原生增强卫星,通过搭载导航信号转发器,为北斗系统提供低轨增强,可将民用定位精度从3-5米提升至厘米级,解决地基增强站覆盖盲区、收敛速度慢等问题,推动北斗导航服务性能升级,是中国低轨导航增强星座组网建设的重要组成部分。

基本信息
目录编号:
68356
目录名称:
CENTISPACE-2 S7
国际标识:
2026-060G
轨道中心:
EARTH
卫星名称:
CENTISPACE-2 S7
卫星全名:
CENTISPACE-2 S7
卫星状态:
在轨 (已飞行167 天)
发射日期:
2026-03-22 UTC
国别 :
中国 (CN)
星等 :
--
轨道信息
数据来源 国际轨道数据
星历时间: 2026-09-03T04:37:43+0800
2天前
查看轨道信息
半长轴: 7166.619km
偏心率: 0.0028954
轨道倾角: 54.986°
近地点辐角 312.671°
升交点赤经 92.373°
平近点角 47.182°
近地点: 767.731km
远地点: 809.233km
周期: 100.631分钟
每日圈数: 14.309725
详细信息
使用方式:
暂无
2D轨道图
3D轨道图
轨道高度分析图
轨道倾角分析图
轨道综合分析图
查看轨道综合分析图
交会数据列表
事件ID 空间交会对象 最接近时刻(TCA) 交会距离 交会风险概率(CRP) 交会风险指数(CRI) 操作
CDM_260906-184703-037106-835622
2026-09-06T
18:47:29+0000
1.387 km
极远距离
8.360928E-6 低风险 0.53
CDM_260902-062304-047106-835622
2026-09-02T
06:23:32+0000
1.866 km
极远距离
3.399049E-6 低风险 0.46
CDM_260902-054103-733106-835621
2026-09-02T
05:41:57+0000
2.647 km
极远距离
1.477828E-6 低风险 0.38